Time,TemperatureF,DewpointF,PressureIn,WindDirection,WindDirectionDegrees,WindSpeedMPH,WindSpeedGustMPH,Humidity,HourlyPrecipIn,Conditions,Clouds,dailyrainin,SoftwareType,DateUTC
2013-06-29 00:11:00,70.5,69.0,29.61,WSW,238,0.0,4.0,96,0.26,,,0.05,weatherlink.com 1.10,2013-06-29 04:11:00,
2013-06-29 00:27:00,70.4,69.0,29.60,WSW,238,0.0,1.0,96,0.26,,,0.11,weatherlink.com 1.10,2013-06-29 04:27:00,
2013-06-29 00:42:00,70.3,69.0,29.59,WSW,238,0.0,2.0,96,0.22,,,0.13,weatherlink.com 1.10,2013-06-29 04:42:00,
2013-06-29 00:57:00,70.2,69.0,29.58,WSW,238,0.0,1.0,96,0.16,,,0.14,weatherlink.com 1.10,2013-06-29 04:57:00,
2013-06-29 01:12:00,70.2,69.0,29.58,WSW,238,0.0,2.0,96,0.08,,,0.14,weatherlink.com 1.10,2013-06-29 05:12:00,
2013-06-29 01:27:00,70.1,69.0,29.58,WSW,246,0.0,2.0,97,0.03,,,0.14,weatherlink.com 1.10,2013-06-29 05:27:00,
2013-06-29 01:42:00,70.1,69.0,29.57,WSW,248,0.0,3.0,97,0.01,,,0.14,weatherlink.com 1.10,2013-06-29 05:42:00,
2013-06-29 01:57:00,70.0,69.0,29.58,ESE,122,0.0,3.0,97,0.00,,,0.14,weatherlink.com 1.10,2013-06-29 05:57:00,
2013-06-29 02:12:00,70.0,69.0,29.57,SSE,150,0.0,3.0,97,0.00,,,0.14,weatherlink.com 1.10,2013-06-29 06:12:00,
2013-06-29 02:27:00,69.9,69.0,29.58,SW,220,0.0,4.0,97,0.00,,,0.14,weatherlink.com 1.10,2013-06-29 06:27:00,
2013-06-29 02:42:00,69.8,69.0,29.56,SW,221,0.0,3.0,97,0.00,,,0.14,weatherlink.com 1.10,2013-06-29 06:42:00,
2013-06-29 02:59:00,69.8,69.0,29.55,SW,221,0.0,0.0,97,0.00,,,0.14,weatherlink.com 1.10,2013-06-29 06:59:00,
2013-06-29 03:12:00,69.7,69.0,29.55,SW,221,0.0,0.0,97,0.00,,,0.14,weatherlink.com 1.10,2013-06-29 07:12:00,
2013-06-29 03:27:00,69.6,69.0,29.56,South,183,0.0,3.0,97,0.00,,,0.14,weatherlink.com 1.10,2013-06-29 07:27:00,
2013-06-29 03:42:00,69.5,69.0,29.56,South,178,0.0,4.0,97,0.00,,,0.14,weatherlink.com 1.10,2013-06-29 07:42:00,
2013-06-29 03:57:00,69.4,69.0,29.56,WSW,252,0.0,3.0,97,0.00,,,0.14,weatherlink.com 1.10,2013-06-29 07:57:00,
2013-06-29 04:12:00,69.3,69.0,29.57,SW,233,0.0,3.0,97,0.00,,,0.14,weatherlink.com 1.10,2013-06-29 08:12:00,
2013-06-29 04:27:00,69.2,68.0,29.57,SW,233,0.0,2.0,97,0.00,,,0.14,weatherlink.com 1.10,2013-06-29 08:27:00,
2013-06-29 04:42:00,69.1,68.0,29.57,SW,233,0.0,2.0,97,0.00,,,0.14,weatherlink.com 1.10,2013-06-29 08:42:00,
2013-06-29 04:57:00,68.9,68.0,29.57,SW,233,0.0,1.0,97,0.00,,,0.14,weatherlink.com 1.10,2013-06-29 08:57:00,
2013-06-29 05:12:00,68.8,68.0,29.58,SW,231,1.0,2.0,97,0.00,,,0.14,weatherlink.com 1.10,2013-06-29 09:12:00,
2013-06-29 05:27:00,68.7,68.0,29.58,SW,231,1.0,2.0,97,0.00,,,0.14,weatherlink.com 1.10,2013-06-29 09:27:00,
2013-06-29 05:42:00,68.6,68.0,29.58,SSW,205,0.0,3.0,97,0.00,,,0.14,weatherlink.com 1.10,2013-06-29 09:42:00,
2013-06-29 05:57:00,68.6,68.0,29.59,WSW,246,0.0,3.0,97,0.00,,,0.14,weatherlink.com 1.10,2013-06-29 09:57:00,
2013-06-29 06:12:00,68.5,68.0,29.59,WSW,240,0.0,4.0,97,0.00,,,0.14,weatherlink.com 1.10,2013-06-29 10:12:00,
2013-06-29 06:27:00,68.5,68.0,29.60,SSW,197,0.0,4.0,97,0.00,,,0.14,weatherlink.com 1.10,2013-06-29 10:27:00,
2013-06-29 06:42:00,68.5,68.0,29.60,WSW,238,0.0,4.0,97,0.00,,,0.14,weatherlink.com 1.10,2013-06-29 10:42:00,
2013-06-29 06:57:00,68.5,68.0,29.61,WSW,237,0.0,3.0,97,0.00,,,0.14,weatherlink.com 1.10,2013-06-29 10:57:00,
2013-06-29 07:12:00,68.5,68.0,29.61,WSW,237,0.0,2.0,97,0.00,,,0.14,weatherlink.com 1.10,2013-06-29 11:12:00,
2013-06-29 07:27:00,68.6,68.0,29.61,SW,234,0.0,3.0,97,0.00,,,0.14,weatherlink.com 1.10,2013-06-29 11:27:00,
2013-06-29 07:42:00,68.8,68.0,29.61,SW,234,0.0,2.0,97,0.00,,,0.14,weatherlink.com 1.10,2013-06-29 11:42:00,
2013-06-29 07:57:00,69.0,68.0,29.61,SW,234,0.0,3.0,97,0.00,,,0.14,weatherlink.com 1.10,2013-06-29 11:57:00,
2013-06-29 08:12:00,69.2,68.0,29.62,WSW,243,0.0,4.0,97,0.00,,,0.14,weatherlink.com 1.10,2013-06-29 12:12:00,
2013-06-29 08:27:00,69.4,69.0,29.62,WNW,286,0.0,4.0,97,0.00,,,0.14,weatherlink.com 1.10,2013-06-29 12:27:00,
2013-06-29 08:42:00,69.5,69.0,29.62,SW,223,1.0,4.0,97,0.00,,,0.14,weatherlink.com 1.10,2013-06-29 12:42:00,
2013-06-29 08:57:00,69.8,69.0,29.62,WSW,244,2.0,7.0,97,0.00,,,0.14,weatherlink.com 1.10,2013-06-29 12:57:00,
2013-06-29 09:12:00,70.2,70.0,29.63,WSW,240,0.0,6.0,98,0.00,,,0.14,weatherlink.com 1.10,2013-06-29 13:12:00,
2013-06-29 09:27:00,70.3,69.0,29.63,SSW,202,3.0,5.0,97,0.00,,,0.14,weatherlink.com 1.10,2013-06-29 13:27:00,
2013-06-29 09:42:00,70.6,70.0,29.63,SW,223,1.0,6.0,97,0.00,,,0.14,weatherlink.com 1.10,2013-06-29 13:42:00,
2013-06-29 09:57:00,70.8,70.0,29.62,SSW,201,0.0,4.0,98,0.00,,,0.14,weatherlink.com 1.10,2013-06-29 13:57:00,
2013-06-29 10:12:00,71.1,70.0,29.62,WSW,245,1.0,4.0,97,0.00,,,0.14,weatherlink.com 1.10,2013-06-29 14:12:00,
2013-06-29 10:27:00,71.3,70.0,29.62,SW,225,1.0,6.0,97,0.00,,,0.14,weatherlink.com 1.10,2013-06-29 14:27:00,
2013-06-29 10:42:00,72.0,71.0,29.63,WSW,254,0.0,6.0,98,0.00,,,0.14,weatherlink.com 1.10,2013-06-29 14:42:00,
2013-06-29 10:57:00,74.2,72.0,29.63,WSW,250,0.0,5.0,94,0.00,,,0.14,weatherlink.com 1.10,2013-06-29 14:57:00,
2013-06-29 11:12:00,74.7,73.0,29.63,SW,221,0.0,3.0,94,0.00,,,0.14,weatherlink.com 1.10,2013-06-29 15:12:00,
2013-06-29 11:27:00,75.8,73.0,29.63,WSW,250,0.0,4.0,91,0.00,,,0.14,weatherlink.com 1.10,2013-06-29 15:27:00,
2013-06-29 11:42:00,76.5,72.0,29.62,SW,222,1.0,5.0,87,0.00,,,0.14,weatherlink.com 1.10,2013-06-29 15:42:00,
2013-06-29 11:57:00,77.4,73.0,29.63,WNW,285,0.0,4.0,87,0.00,,,0.14,weatherlink.com 1.10,2013-06-29 15:57:00,
2013-06-29 12:12:00,78.5,73.0,29.62,WNW,282,0.0,2.0,84,0.00,,,0.14,weatherlink.com 1.10,2013-06-29 16:12:00,
2013-06-29 12:27:00,78.4,74.0,29.62,SW,235,0.0,6.0,86,0.00,,,0.14,weatherlink.com 1.10,2013-06-29 16:27:00,
2013-06-29 12:42:00,78.4,71.0,29.62,ESE,113,0.0,4.0,79,0.00,,,0.14,weatherlink.com 1.10,2013-06-29 16:42:00,
2013-06-29 12:57:00,80.5,75.0,29.62,South,178,0.0,5.0,82,0.00,,,0.14,weatherlink.com 1.10,2013-06-29 16:57:00,
2013-06-29 13:13:00,80.5,74.0,29.62,South,171,1.0,7.0,80,0.00,,,0.14,weatherlink.com 1.10,2013-06-29 17:13:00,
2013-06-29 13:28:00,81.5,74.0,29.62,NE,46,0.0,5.0,78,0.00,,,0.14,weatherlink.com 1.10,2013-06-29 17:28:00,
2013-06-29 13:43:00,80.0,73.0,29.62,East,91,3.0,7.0,79,0.00,,,0.14,weatherlink.com 1.10,2013-06-29 17:43:00,
2013-06-29 13:58:00,79.8,74.0,29.61,SSE,167,2.0,7.0,81,0.00,,,0.14,weatherlink.com 1.10,2013-06-29 17:58:00,
2013-06-29 14:13:00,81.0,74.0,29.61,ESE,106,4.0,6.0,80,0.00,,,0.14,weatherlink.com 1.10,2013-06-29 18:13:00,
2013-06-29 14:28:00,81.3,75.0,29.62,SE,138,5.0,8.0,80,0.00,,,0.14,weatherlink.com 1.10,2013-06-29 18:28:00,
2013-06-29 14:43:00,81.4,72.0,29.62,South,173,3.0,9.0,73,0.00,,,0.14,weatherlink.com 1.10,2013-06-29 18:43:00,
2013-06-29 14:58:00,79.1,71.0,29.62,SSE,150,4.0,7.0,77,0.00,,,0.14,weatherlink.com 1.10,2013-06-29 18:58:00,
2013-06-29 15:13:00,78.8,73.0,29.62,SW,232,2.0,8.0,81,0.00,,,0.14,weatherlink.com 1.10,2013-06-29 19:13:00,
2013-06-29 15:28:00,79.1,73.0,29.61,SW,234,2.0,10.0,82,0.00,,,0.14,weatherlink.com 1.10,2013-06-29 19:28:00,
2013-06-29 15:43:00,79.6,74.0,29.61,South,184,3.0,10.0,82,0.00,,,0.14,weatherlink.com 1.10,2013-06-29 19:43:00,
2013-06-29 15:58:00,79.5,73.0,29.61,ESE,113,2.0,10.0,79,0.00,,,0.14,weatherlink.com 1.10,2013-06-29 19:58:00,
2013-06-29 16:13:00,79.5,73.0,29.61,South,185,7.0,10.0,79,0.00,,,0.14,weatherlink.com 1.10,2013-06-29 20:13:00,
2013-06-29 16:28:00,79.9,73.0,29.61,South,188,2.0,7.0,79,0.00,,,0.14,weatherlink.com 1.10,2013-06-29 20:28:00,
2013-06-29 16:43:00,79.9,74.0,29.61,SSE,167,1.0,11.0,81,0.00,,,0.14,weatherlink.com 1.10,2013-06-29 20:43:00,
2013-06-29 16:58:00,79.8,73.0,29.61,South,175,2.0,8.0,80,0.00,,,0.14,weatherlink.com 1.10,2013-06-29 20:58:00,
2013-06-29 17:13:00,79.4,73.0,29.61,East,99,0.0,6.0,80,0.00,,,0.14,weatherlink.com 1.10,2013-06-29 21:13:00,
2013-06-29 17:28:00,79.2,73.0,29.61,SSW,193,1.0,12.0,81,0.00,,,0.14,weatherlink.com 1.10,2013-06-29 21:28:00,
2013-06-29 17:43:00,80.1,73.0,29.61,South,188,8.0,9.0,79,0.00,,,0.14,weatherlink.com 1.10,2013-06-29 21:43:00,
2013-06-29 17:58:00,80.3,73.0,29.61,WSW,254,7.0,8.0,78,0.00,,,0.14,weatherlink.com 1.10,2013-06-29 21:58:00,
2013-06-29 18:13:00,79.8,72.0,29.61,South,169,4.0,6.0,78,0.00,,,0.14,weatherlink.com 1.10,2013-06-29 22:13:00,
2013-06-29 18:28:00,78.8,73.0,29.61,SSE,157,1.0,8.0,82,0.00,,,0.14,weatherlink.com 1.10,2013-06-29 22:28:00,
2013-06-29 18:43:00,79.1,73.0,29.61,South,184,3.0,6.0,82,0.00,,,0.14,weatherlink.com 1.10,2013-06-29 22:43:00,
2013-06-29 18:58:00,78.9,73.0,29.62,SSW,198,6.0,6.0,83,0.00,,,0.14,weatherlink.com 1.10,2013-06-29 22:58:00,
2013-06-29 19:13:00,78.8,74.0,29.62,SW,214,4.0,7.0,84,0.00,,,0.14,weatherlink.com 1.10,2013-06-29 23:13:00,
2013-06-29 19:28:00,78.9,74.0,29.62,SSW,197,0.0,8.0,84,0.00,,,0.14,weatherlink.com 1.10,2013-06-29 23:28:00,
2013-06-29 19:43:00,78.8,73.0,29.63,SSW,202,0.0,4.0,83,0.00,,,0.14,weatherlink.com 1.10,2013-06-29 23:43:00,
2013-06-29 19:58:00,78.4,74.0,29.63,SSE,150,2.0,5.0,85,0.00,,,0.14,weatherlink.com 1.10,2013-06-29 23:58:00,
2013-06-29 20:13:00,77.6,74.0,29.63,SW,214,3.0,5.0,88,0.00,,,0.14,weatherlink.com 1.10,2013-06-30 00:13:00,
2013-06-29 20:28:00,76.8,73.0,29.63,South,182,0.0,4.0,89,0.00,,,0.14,weatherlink.com 1.10,2013-06-30 00:28:00,
2013-06-29 20:43:00,76.2,73.0,29.64,South,182,0.0,3.0,90,0.00,,,0.14,weatherlink.com 1.10,2013-06-30 00:43:00,
2013-06-29 20:58:00,75.4,73.0,29.64,South,183,0.0,2.0,91,0.00,,,0.14,weatherlink.com 1.10,2013-06-30 00:58:00,
2013-06-29 21:13:00,74.7,72.0,29.64,South,183,0.0,2.0,92,0.00,,,0.14,weatherlink.com 1.10,2013-06-30 01:13:00,
2013-06-29 21:28:00,74.2,72.0,29.65,South,183,0.0,2.0,93,0.00,,,0.14,weatherlink.com 1.10,2013-06-30 01:28:00,
2013-06-29 21:43:00,73.8,72.0,29.65,South,184,0.0,3.0,94,0.00,,,0.14,weatherlink.com 1.10,2013-06-30 01:43:00,
2013-06-29 21:58:00,73.4,72.0,29.66,South,171,0.0,2.0,94,0.00,,,0.14,weatherlink.com 1.10,2013-06-30 01:58:00,
2013-06-29 22:13:00,73.1,72.0,29.66,SSE,167,0.0,1.0,95,0.00,,,0.14,weatherlink.com 1.10,2013-06-30 02:13:00,
2013-06-29 22:28:00,72.9,71.0,29.66,SSE,167,0.0,1.0,95,0.00,,,0.14,weatherlink.com 1.10,2013-06-30 02:28:00,
2013-06-29 22:43:00,72.8,71.0,29.67,South,187,0.0,3.0,95,0.00,,,0.14,weatherlink.com 1.10,2013-06-30 02:43:00,
2013-06-29 22:58:00,72.6,71.0,29.67,South,178,0.0,3.0,96,0.00,,,0.14,weatherlink.com 1.10,2013-06-30 02:58:00,
2013-06-29 23:13:00,72.5,71.0,29.67,SE,134,0.0,5.0,96,0.00,,,0.14,weatherlink.com 1.10,2013-06-30 03:13:00,
2013-06-29 23:28:00,72.5,71.0,29.67,South,174,0.0,3.0,96,0.00,,,0.14,weatherlink.com 1.10,2013-06-30 03:28:00,
2013-06-29 23:43:00,72.6,71.0,29.67,SSE,156,0.0,4.0,96,0.00,,,0.14,weatherlink.com 1.10,2013-06-30 03:43:00,
2013-06-29 23:58:00,72.6,71.0,29.67,SSW,193,0.0,4.0,96,0.00,,,0.14,weatherlink.com 1.10,2013-06-30 03:58:00,